EW6553 Weather Reports


time (UTC)temp
C
wind
direction
speed
KPH
gust
KPH
rain 1hr
cm
rain 24hr
cm
rain mn
cm
humidity
%
barometer
mb
20260906225701 37 99 1.6 8.0 0.00 0.00 0.00 42 1010.7
20260906225200 37 161 3.2 9.7 0.00 0.00 0.00 43 1010.7
20260906224702 36 162 3.2 9.7 0.00 0.00 0.00 43 1010.7
20260906224653 36 164 1.6 8.0 0.00 0.00 0.00 43 1010.6
20260906223701 36 115 1.6 6.4 0.00 0.00 0.00 45 1010.8
20260906223203 36 148 1.6 6.4 0.00 0.00 0.00 44 1010.9
20260906222701 36 101 1.6 8.0 0.00 0.00 0.00 44 1010.8
20260906222204 37 168 1.6 8.0 0.00 0.00 0.00 44 1010.9
20260906221702 36 92 1.6 11.3 0.00 0.00 0.00 45 1010.9
20260906221201 36 84 3.2 11.3 0.00 0.00 0.00 45 1011.0
20260906220702 36 94 3.2 12.9 0.00 0.00 0.00 44 1011.0
20260906220429 37 94 3.2 12.9 0.00 0.00 0.00 44 1011.1
20260906215701 37 153 3.2 9.7 0.00 0.00 0.00 46 1010.9
20260906215654 38 64 3.2 9.7 0.00 0.00 0.00 43 1011.0
20260906214702 37 163 3.2 8.0 0.00 0.00 0.00 43 1011.0
20260906214201 37 130 3.2 9.7 0.00 0.00 0.00 42 1011.2
20260906213701 37 153 3.2 9.7 0.00 0.00 0.00 43 1011.4
20260906213201 36 154 1.6 4.8 0.00 0.00 0.00 45 1011.4
20260906212701 36 86 1.6 6.4 0.00 0.00 0.00 46 1011.5
20260906212201 36 82 1.6 6.4 0.00 0.00 0.00 46 1011.5
20260906211927 36 77 1.6 6.4 0.00 0.00 0.00 46 1011.6
20260906211200 37 171 3.2 12.9 0.00 0.00 0.00 43 1011.7
20260906210701 37 142 3.2 12.9 0.00 0.00 0.00 45 1011.7
20260906210201 37 348 3.2 8.0 0.00 0.00 0.00 46 1011.7
20260906205700 36 172 3.2 9.7 0.00 0.00 0.00 45 1011.8
20260906205159 36 82 3.2 9.7 0.00 0.00 0.00 44 1011.8
20260906204659 37 156 3.2 6.4 0.00 0.00 0.00 43 1012.0
20260906204158 37 123 3.2 6.4 0.00 0.00 0.00 43 1012.0
20260906203657 37 55 1.6 8.0 0.00 0.00 0.00 43 1012.1
20260906203158 37 170 3.2 11.3 0.00 0.00 0.00 46 1012.1
20260906202655 36 154 1.6 11.3 0.00 0.00 0.00 44 1012.1
20260906202154 36 101 1.6 6.4 0.00 0.00 0.00 42 1012.2
20260906201922 37 92 3.2 8.0 0.00 0.00 0.00 46 1012.3
20260906201150 37 107 3.2 12.9 0.00 0.00 0.00 45 1012.3
20260906200649 37 128 3.2 12.9 0.00 0.00 0.00 43 1012.4
20260906200149 37 171 3.2 12.9 0.00 0.00 0.00 42 1012.3
20260906195648 36 116 3.2 12.9 0.00 0.00 0.00 46 1012.3
20260906195415 36 168 3.2 8.0 0.00 0.00 0.00 47 1012.4
20260906194649 36 101 3.2 19.3 0.00 0.00 0.00 46 1012.4
20260906194146 37 166 3.2 19.3 0.00 0.00 0.00 44 1012.5
20260906193643 37 121 3.2 9.7 0.00 0.00 0.00 45 1012.5
20260906193409 36 65 3.2 9.7 0.00 0.00 0.00 45 1012.6
20260906192638 36 177 3.2 9.7 0.00 0.00 0.00 47 1012.6
20260906192138 36 161 3.2 9.7 0.00 0.00 0.00 45 1012.7
20260906191636 36 219 3.2 8.0 0.00 0.00 0.00 48 1012.7
20260906191131 36 107 3.2 14.5 0.00 0.00 0.00 49 1012.9
20260906190630 35 173 3.2 14.5 0.00 0.00 0.00 48 1013.0
20260906190129 36 211 3.2 9.7 0.00 0.00 0.00 48 1013.0
20260906185853 36 78 3.2 9.7 0.00 0.00 0.00 48 1013.0
20260906185117 36 68 3.2 9.7 0.00 0.00 0.00 48 1013.0
20260906184611 36 202 3.2 9.7 0.00 0.00 0.00 48 1013.0
20260906184105 36 120 3.2 9.7 0.00 0.00 0.00 50 1013.0
20260906183833 36 44 3.2 12.9 0.00 0.00 0.00 52 1013.1
20260906183102 36 219 3.2 12.9 0.00 0.00 0.00 50 1013.2
20260906182835 36 173 3.2 8.0 0.00 0.00 0.00 49 1013.4
20260906182102 36 178 3.2 8.0 0.00 0.00 0.00 51 1013.4
20260906181601 36 94 3.2 8.0 0.00 0.00 0.00 50 1013.4
20260906181102 35 169 3.2 8.0 0.00 0.00 0.00 51 1013.5
20260906180827 35 83 3.2 9.7 0.00 0.00 0.00 52 1013.5
20260906180101 35 182 3.2 9.7 0.00 0.00 0.00 51 1013.6
20260906175602 35 205 3.2 9.7 0.00 0.00 0.00 52 1013.7
20260906175100 35 115 3.2 9.7 0.00 0.00 0.00 49 1013.8
20260906174601 35 148 3.2 11.3 0.00 0.00 0.00 50 1014.0
20260906174326 35 165 3.2 14.5 0.00 0.00 0.00 50 1014.0
20260906173601 35 135 3.2 14.5 0.00 0.00 0.00 52 1014.0
20260906173101 35 78 3.2 14.5 0.00 0.00 0.00 54 1014.2
20260906172825 35 177 3.2 11.3 0.00 0.00 0.00 53 1014.3
20260906172102 35 162 3.2 11.3 0.00 0.00 0.00 52 1014.3
20260906171601 35 182 3.2 11.3 0.00 0.00 0.00 53 1014.3
20260906171057 34 121 3.2 11.3 0.00 0.00 0.00 55 1014.4
20260906170551 34 172 3.2 11.3 0.00 0.00 0.00 54 1014.5
20260906170046 34 128 3.2 6.4 0.00 0.00 0.00 54 1014.5
20260906165807 34 133 1.6 6.4 0.00 0.00 0.00 54 1014.6
20260906165033 34 198 1.6 6.4 0.00 0.00 0.00 56 1014.6
20260906164757 34 182 1.6 6.4 0.00 0.00 0.00 56 1014.7
20260906164032 33 165 1.6 8.0 0.00 0.00 0.00 55 1014.7
20260906163532 33 152 1.6 8.0 0.00 0.00 0.00 57 1014.7
20260906163031 33 161 1.6 6.4 0.00 0.00 0.00 58 1014.7
20260906162531 33 157 1.6 6.4 0.00 0.00 0.00 58 1014.7
20260906162032 33 155 1.6 8.0 0.00 0.00 0.00 57 1014.7
20260906161530 33 198 1.6 8.0 0.00 0.00 0.00 58 1014.7
20260906161030 33 189 3.2 14.5 0.00 0.00 0.00 62 1014.7
20260906160531 32 209 3.2 14.5 0.00 0.00 0.00 61 1014.7
20260906160305 32 165 1.6 8.0 0.00 0.00 0.00 61 1014.6
20260906155532 32 146 1.6 4.8 0.00 0.00 0.00 63 1014.8
20260906155301 32 148 1.6 6.4 0.00 0.00 0.00 62 1014.8
20260906154534 32 88 1.6 6.4 0.00 0.00 0.00 64 1014.7
20260906154032 31 87 1.6 6.4 0.00 0.00 0.00 64 1014.7
20260906153529 31 76 3.2 6.4 0.00 0.00 0.00 66 1014.7
20260906153030 31 167 1.6 6.4 0.00 0.00 0.00 66 1014.6
20260906152757 31 168 1.6 3.2 0.00 0.00 0.00 68 1014.6
20260906152032 31 168 1.6 6.4 0.00 0.00 0.00 68 1014.5
20260906151529 30 168 1.6 6.4 0.00 0.00 0.00 69 1014.4
20260906151029 30 169 1.6 6.4 0.00 0.00 0.00 69 1014.4
20260906150529 30 171 1.6 6.4 0.00 0.00 0.00 70 1014.5
20260906150029 30 157 1.6 6.4 0.00 0.00 0.00 71 1014.3
20260906145529 30 156 1.6 6.4 0.00 0.00 0.00 72 1014.3
20260906145029 29 160 1.6 3.2 0.00 0.00 0.00 72 1014.3
20260906144529 29 161 1.6 6.4 0.00 0.00 0.00 73 1014.3
20260906144029 29 161 0.0 6.4 0.00 0.00 0.00 73 1014.3
20260906143532 28 161 0.0 3.2 0.00 0.00 0.00 73 1014.3
20260906143032 28 161 0.0 3.2 0.00 0.00 0.00 74 1014.4
20260906142532 28 161 1.6 3.2 0.00 0.00 0.00 75 1014.5
20260906142034 28 161 1.6 3.2 0.00 0.00 0.00 75 1014.4
20260906141533 28 184 1.6 4.8 0.00 0.00 0.00 76 1014.4
20260906141032 28 185 1.6 4.8 0.00 0.00 0.00 76 1014.3
20260906140758 27 185 0.0 3.2 0.00 0.00 0.00 77 1014.3
20260906140033 27 185 0.0 3.2 0.00 0.00 0.00 78 1014.3
20260906135527 27 185 0.0 3.2 0.00 0.00 0.00 78 1014.3
20260906135025 27 185 0.0 3.2 0.00 0.00 0.00 79 1014.4
20260906134524 26 185 0.0 3.2 0.00 0.00 0.00 80 1014.2
20260906134023 26 185 0.0 1.6 0.00 0.00 0.00 82 1014.2
20260906133523 26 185 0.0 3.2 0.00 0.00 0.00 84 1014.2
20260906133025 26 185 0.0 3.2 0.00 0.00 0.00 85 1014.3
20260906132520 26 185 0.0 3.2 0.00 0.00 0.00 85 1014.3
20260906132020 26 198 0.0 3.2 0.00 0.00 0.00 86 1014.2
20260906131520 26 198 0.0 1.6 0.00 0.00 0.00 86 1014.3
20260906131019 26 198 0.0 1.6 0.00 0.00 0.00 85 1014.2
20260906130517 26 198 0.0 1.6 0.00 0.00 0.00 85 1014.3
20260906130018 26 198 0.0 0.0 0.00 0.00 0.00 84 1014.2
20260906125517 25 198 0.0 0.0 0.00 0.00 0.00 85 1014.1
20260906125017 25 198 0.0 0.0 0.00 0.00 0.00 86 1014.0
20260906124516 25 198 0.0 0.0 0.00 0.00 0.00 86 1014.0
20260906124017 24 198 0.0 0.0 0.00 0.00 0.00 86 1013.9
20260906123518 24 198 0.0 0.0 0.00 0.00 0.00 86 1013.9
20260906123017 24 198 0.0 0.0 0.00 0.00 0.00 85 1013.9
20260906122737 24 198 0.0 0.0 0.00 0.00 0.00 85 1013.8
20260906122017 24 198 0.0 0.0 0.00 0.00 0.00 85 1013.8
20260906121517 24 198 0.0 0.0 0.00 0.00 0.00 85 1013.7
20260906121017 24 198 0.0 0.0 0.00 0.00 0.00 85 1013.7
20260906120515 25 198 0.0 0.0 0.00 0.00 0.00 84 1013.6
20260906120230 25 198 0.0 0.0 0.00 0.00 0.00 84 1013.7
20260906115511 25 198 0.0 0.0 0.00 0.00 0.00 84 1013.6
20260906115011 25 198 0.0 0.0 0.00 0.00 0.00 84 1013.6
20260906114511 25 198 0.0 0.0 0.00 0.00 0.00 83 1013.5
20260906114011 25 198 0.0 0.0 0.00 0.00 0.00 83 1013.4
20260906113510 25 198 0.0 0.0 0.00 0.00 0.00 83 1013.5
20260906113236 25 198 0.0 0.0 0.00 0.00 0.00 82 1013.5
20260906112730 25 198 0.0 0.0 0.00 0.00 0.00 82 1013.4
20260906112011 25 198 0.0 0.0 0.00 0.00 0.00 83 1013.2
20260906111507 25 198 0.0 0.0 0.00 0.00 0.00 82 1013.2
20260906111444 25 198 0.0 0.0 0.00 0.00 0.00 83 1013.1
20260906111207 25 198 0.0 0.0 0.00 0.00 0.00 83 1013.1
20260906110006 25 198 0.0 0.0 0.00 0.00 0.00 83 1013.1
20260906105506 25 198 0.0 0.0 0.00 0.00 0.00 83 1013.1
20260906105007 25 198 0.0 0.0 0.00 0.00 0.00 83 1013.1
20260906104507 25 198 0.0 0.0 0.00 0.00 0.00 83 1013.0
20260906104238 25 198 0.0 0.0 0.00 0.00 0.00 83 1013.1
20260906103735 25 198 0.0 0.0 0.00 0.00 0.00 82 1013.2
20260906103004 25 198 0.0 0.0 0.00 0.00 0.00 82 1013.1
20260906102458 25 198 0.0 0.0 0.00 0.00 0.00 82 1012.9
20260906101956 25 198 0.0 0.0 0.00 0.00 0.00 81 1012.8
20260906101454 25 198 0.0 0.0 0.00 0.00 0.00 81 1012.8
20260906100952 25 198 0.0 0.0 0.00 0.00 0.00 81 1012.9
20260906100450 25 198 0.0 0.0 0.00 0.00 0.00 81 1012.8
20260906100216 25 198 0.0 0.0 0.00 0.00 0.00 80 1012.7
20260906095721 26 198 0.0 0.0 0.00 0.00 0.00 80 1012.7
20260906094944 26 198 0.0 0.0 0.00 0.00 0.00 79 1012.7
20260906094443 26 198 0.0 0.0 0.00 0.00 0.00 79 1012.6
20260906093941 26 198 0.0 1.6 0.00 0.00 0.00 78 1012.5
20260906093439 26 198 0.0 1.6 0.00 0.00 0.00 77 1012.5
20260906092936 26 198 0.0 3.2 0.00 0.00 0.00 77 1012.4
20260906092435 26 198 0.0 3.2 0.00 0.00 0.00 76 1012.3
20260906091933 26 198 0.0 3.2 0.00 0.00 0.00 76 1012.4
20260906091433 27 198 0.0 3.2 0.00 0.00 0.00 76 1012.4
20260906090930 27 198 0.0 3.2 0.00 0.00 0.00 75 1012.3
20260906090439 27 198 1.6 3.2 0.00 0.00 0.00 75 1012.3
20260906085930 27 198 0.0 3.2 0.00 0.00 0.00 75 1012.4
20260906085431 27 198 0.0 3.2 0.00 0.00 0.00 75 1012.3
20260906084930 27 198 0.0 3.2 0.00 0.00 0.00 75 1012.4
20260906084430 27 198 1.6 3.2 0.00 0.00 0.00 75 1012.4
20260906083930 27 198 1.6 4.8 0.00 0.00 0.00 75 1012.4
20260906083430 27 198 3.2 6.4 0.00 0.00 0.00 75 1012.4
20260906082930 27 198 1.6 6.4 0.00 0.00 0.00 75 1012.3
20260906082429 27 196 1.6 3.2 0.00 0.00 0.00 74 1012.4
20260906082201 27 196 1.6 4.8 0.00 0.00 0.00 74 1012.4
20260906081429 27 196 1.6 4.8 0.00 0.00 0.00 74 1012.4
20260906081157 27 196 1.6 3.2 0.00 0.00 0.00 73 1012.5
20260906080429 27 196 1.6 6.4 0.00 0.00 0.00 73 1012.5
20260906075929 27 196 3.2 6.4 0.00 0.00 0.00 73 1012.4
20260906075429 27 196 3.2 6.4 0.00 0.00 0.00 73 1012.4
20260906074929 27 196 1.6 6.4 0.00 0.00 0.00 73 1012.5
20260906074429 28 191 0.0 6.4 0.00 0.00 0.00 73 1012.7
20260906073930 28 168 0.0 3.2 0.00 0.00 0.00 73 1012.7
20260906073428 28 168 1.6 4.8 0.00 0.00 0.00 72 1012.7
20260906072929 28 168 1.6 9.7 0.00 0.00 0.00 72 1012.8
20260906072656 28 159 1.6 9.7 0.00 0.00 0.00 72 1012.7
20260906071935 28 169 1.6 6.4 0.00 0.00 0.00 72 1012.6
20260906071429 28 169 1.6 6.4 0.00 0.00 0.00 72 1012.8
20260906071149 28 163 1.6 6.4 0.00 0.00 0.00 71 1012.8
20260906070415 28 210 1.6 6.4 0.00 0.00 0.00 71 1012.8
20260906065908 28 210 3.2 6.4 0.00 0.00 0.00 71 1012.7
20260906065407 28 202 3.2 4.8 0.00 0.00 0.00 71 1012.7
20260906065127 28 197 3.2 6.4 0.00 0.00 0.00 70 1012.8
20260906064353 28 200 3.2 8.0 0.00 0.00 0.00 70 1012.9
20260906063847 28 187 3.2 8.0 0.00 0.00 0.00 70 1012.8
20260906063341 28 184 3.2 4.8 0.00 0.00 0.00 70 1012.8
20260906062836 28 193 3.2 6.4 0.00 0.00 0.00 70 1012.8
20260906062335 28 193 3.2 8.0 0.00 0.00 0.00 70 1012.8
20260906061834 28 209 1.6 8.0 0.00 0.00 0.00 70 1012.9
20260906061334 28 186 1.6 3.2 0.00 0.00 0.00 70 1012.8
20260906060834 28 186 1.6 3.2 0.00 0.00 0.00 70 1012.9
20260906060334 28 186 1.6 3.2 0.00 0.00 0.00 71 1013.0
20260906055834 28 186 1.6 4.8 0.00 0.00 0.00 70 1013.0
20260906055332 28 187 1.6 4.8 0.00 0.00 0.00 70 1012.9
20260906054832 28 189 1.6 6.4 0.00 0.00 0.00 70 1012.9
20260906054332 28 178 1.6 6.4 0.00 0.00 0.00 70 1012.9
20260906053830 28 154 1.6 3.2 0.00 0.00 0.00 70 1012.8
20260906053331 28 154 1.6 3.2 0.00 0.00 0.00 70 1012.8
20260906052830 28 154 1.6 3.2 0.00 0.00 0.00 69 1012.9
20260906052330 28 154 0.0 3.2 0.00 0.00 0.00 68 1012.8
20260906051831 29 154 0.0 3.2 0.00 0.00 0.00 68 1012.9
20260906051330 29 154 0.0 3.2 0.00 0.00 0.00 67 1013.0
20260906050829 29 154 0.0 3.2 0.00 0.00 0.00 67 1013.0
20260906050329 29 154 0.0 3.2 0.00 0.00 0.00 66 1012.9
20260906050053 29 154 0.0 3.2 0.00 0.00 0.00 66 1013.0
20260906045321 29 154 1.6 3.2 0.00 0.00 0.00 66 1012.9
20260906044814 30 154 1.6 4.8 0.00 0.00 0.00 66 1012.9
20260906044308 30 154 1.6 4.8 0.00 0.00 0.00 65 1012.9
20260906043801 30 139 0.0 3.2 0.00 0.00 0.00 65 1012.9
20260906043302 30 165 1.6 8.0 0.00 0.00 0.00 65 1012.8
20260906042801 30 165 1.6 8.0 0.00 0.00 0.00 65 1012.8
20260906042532 30 178 1.6 4.8 0.00 0.00 0.00 65 1012.7
20260906041800 30 180 1.6 4.8 0.00 0.00 0.00 64 1012.5
20260906041528 30 181 1.6 6.4 0.00 0.00 0.00 64 1012.7
20260906040756 30 182 1.6 9.7 0.00 0.00 0.00 64 1012.7
20260906040527 30 213 1.6 9.7 0.00 0.00 0.00 63 1012.6
20260906035757 30 208 1.6 4.8 0.00 0.00 0.00 63 1012.7
20260906035257 30 211 3.2 8.0 0.00 0.00 0.00 63 1012.8
20260906034756 30 209 3.2 8.0 0.00 0.00 0.00 63 1012.7
20260906034254 30 198 3.2 8.0 0.00 0.00 0.00 62 1012.8
20260906033751 30 163 1.6 8.0 0.00 0.00 0.00 62 1012.9
20260906033252 30 205 1.6 6.4 0.00 0.00 0.00 62 1012.7
20260906032750 31 204 3.2 6.4 0.00 0.00 0.00 62 1012.8
20260906032250 31 161 1.6 8.0 0.00 0.00 0.00 61 1012.8
20260906032017 31 162 1.6 8.0 0.00 0.00 0.00 61 1012.8
20260906031516 31 159 1.6 8.0 0.00 0.00 0.00 61 1012.8
20260906030750 31 159 3.2 8.0 0.00 0.00 0.00 61 1012.7
20260906030244 31 161 3.2 6.4 0.00 0.00 0.00 60 1012.8
20260906030009 31 144 3.2 6.4 0.00 0.00 0.00 60 1012.8
20260906025718 31 141 3.2 11.3 0.00 0.00 0.00 60 1012.8
20260906024732 31 212 3.2 12.9 0.00 0.00 0.00 59 1012.7
20260906024232 31 150 3.2 14.5 0.00 0.00 0.00 59 1012.7
20260906023730 31 178 3.2 14.5 0.00 0.00 0.00 59 1012.6
20260906023230 31 142 3.2 12.9 0.00 0.00 0.00 58 1012.5
20260906022730 31 194 4.8 17.7 0.00 0.00 0.00 58 1012.4
20260906022228 31 198 4.8 17.7 0.00 0.00 0.00 58 1012.3
20260906021952 31 186 3.2 8.0 0.00 0.00 0.00 58 1012.3
20260906021228 32 211 3.2 9.7 0.00 0.00 0.00 57 1012.1
20260906020728 32 167 1.6 9.7 0.00 0.00 0.00 57 1012.0
20260906020229 32 174 1.6 6.4 0.00 0.00 0.00 57 1011.9
20260906015726 32 175 1.6 8.0 0.00 0.00 0.00 56 1011.9
20260906015226 32 171 3.2 11.3 0.00 0.00 0.00 56 1012.0
20260906014726 32 196 3.2 11.3 0.00 0.00 0.00 56 1011.9
20260906014226 32 202 3.2 9.7 0.00 0.00 0.00 55 1011.6
20260906013726 32 169 3.2 12.9 0.00 0.00 0.00 55 1011.5
20260906013225 32 185 4.8 12.9 0.00 0.00 0.00 54 1011.4
20260906012726 33 175 4.8 12.9 0.00 0.00 0.00 53 1011.3
20260906012226 33 189 4.8 12.9 0.00 0.00 0.00 53 1011.2
20260906011726 33 150 4.8 14.5 0.00 0.00 0.00 52 1011.0
20260906011222 33 118 3.2 14.5 0.00 0.00 0.00 50 1010.9
20260906010722 33 240 0.0 6.4 0.00 0.00 0.00 48 1010.8
20260906010222 33 117 0.0 3.2 0.00 0.00 0.00 47 1010.7
20260906005722 33 117 0.0 4.8 0.00 0.00 0.00 47 1010.7
20260906005222 33 116 1.6 4.8 0.00 0.00 0.00 47 1010.8
20260906004724 34 117 1.6 3.2 0.00 0.00 0.00 47 1010.7
20260906004224 34 116 1.6 3.2 0.00 0.00 0.00 46 1010.7
20260906003725 34 128 1.6 3.2 0.00 0.00 0.00 45 1010.8
20260906003451 34 118 1.6 4.8 0.00 0.00 0.00 45 1010.7
20260906002949 35 119 1.6 4.8 0.00 0.00 0.00 45 1010.7
20260906002221 35 133 1.6 4.8 0.00 0.00 0.00 44 1010.8
20260906001717 35 93 1.6 6.4 0.00 0.00 0.00 44 1010.8
20260906001218 35 84 1.6 8.0 0.00 0.00 0.00 44 1010.7
20260906000716 36 144 1.6 8.0 0.00 0.00 0.00 43 1010.6
20260906000214 36 168 1.6 6.4 0.00 0.00 0.00 42 1010.5
20260905235713 36 110 0.0 3.2 0.00 0.00 0.00 42 1010.5
20260905235653 36 110 1.6 4.8 0.00 0.00 0.00 42 1010.5
20260905234708 36 111 1.6 6.4 0.00 0.00 0.00 41 1010.5
20260905234208 36 94 1.6 6.4 0.00 0.00 0.00 41 1010.5
20260905233706 36 76 1.6 6.4 0.00 0.00 0.00 42 1010.5
20260905233206 36 99 1.6 6.4 0.00 0.00 0.00 42 1010.5
20260905232705 37 81 1.6 6.4 0.00 0.00 0.00 42 1010.5
20260905232206 37 82 1.6 6.4 0.00 0.00 0.00 44 1010.5
20260905231706 37 165 1.6 6.4 0.00 0.00 0.00 43 1010.5
20260905231211 36 166 1.6 6.4 0.00 0.00 0.00 44 1010.6
20260905230717 36 160 1.6 6.4 0.00 0.00 0.00 44 1010.5
20260905230209 36 162 1.6 6.4 0.00 0.00 0.00 45 1010.5